Regional Weather Roundup
Issued by NWS Grand Forks, ND

Home | Current Version | Previous Version | Graphics & Text | Print | Product List | Glossary On
Versions: 1 2 3 4 5 6 7 8 9 10 11 12 13 14 15 16 17 18 19 20 21 22 23 24 25 26 27 28 29 30 31 32 33 34 35 36 37 38 39 40 41 42 43 44 45 46 47 48 49 50
000
ASUS43 KFGF 250710
RWRFGF
PRAIRIE TO PINES  WEATHER ROUNDUP
NATIONAL WEATHER SERVICE EASTERN NORTH DAKOTA/GRAND FORKS ND
200 AM CDT WED APR 25 2018

 **SATELLITE DATA USED TO AUGMENT SKY COVER AT AUTOMATED STATIONS**
 *****  WEATHER ACROSS EASTERN NORTH DAKOTA  *****

CITY           SKY/WX    TMP DP  RH WIND       PRES   REMARKS
GRAND FORKS    FAIR      32  30  92 S9        30.28F WCI  24
GRAND FRKS AFB FAIR      35  27  72 S8        30.27F
GRAND FRKS NWS   N/A     39  30  71 SW7       30.26F
DEVILS LAKE    FAIR      34  26  72 S5        30.27F
FARGO          FAIR      31  28  89 S3        30.31F
WAHPETON ARPT  FAIR      34  27  75 N3        30.32S
$$

 ***** WEATHER ACROSS CENTRAL AND WESTERN NORTH DAKOTA  *****

CITY           SKY/WX    TMP DP  RH WIND       PRES   REMARKS
BISMARCK       FAIR      39  27  62 CALM      30.31F
MINOT          FAIR      47  25  42 SW15      30.22F
JAMESTOWN      FAIR      33  27  78 S6        30.30F
MINOT AFB      NOT AVBL
GARRISON         N/A     37  30  75 SW10      30.26F
WILLISTON      FAIR      44  34  67 SW8       30.23F
DICKINSON      FAIR      37  26  64 SW12      30.27F
HETTINGER      FAIR      31  25  78 CALM      30.33F
$$

 *****  OTHER AIRPORT OBSERVATIONS IN OUR AREA  *****

CITY           SKY/WX    TMP DP  RH WIND       PRES   REMARKS
WALHALLA       NOT AVBL
GRAFTON AIRPOR FAIR      32  25  74 S9        30.28F WCI  24
VALLEY CITY AR FAIR      32  32 100 SW5       30.32F
CANDO          FAIR      37  28  70 S12       30.25F
CAVALIER APRT    N/A     37  27  65 S9        30.24F
GWINNER          N/A     32  30  93 CALM      30.32F
SHEYENNE NWR     N/A     32  31  97 W2        29.95S
ROLLA          FAIR      37  27  65 SW12      30.21F
 ***** THE ABOVE OBSERVATIONS ARE NON NWS ARE NOT QUALITY
       CONTROLLED AND MAY MIS-REPORT RAIN FOR SNOW...
$$

  *****  WEATHER ACROSS NORTHERN MINNESOTA  *****

CITY           SKY/WX    TMP DP  RH WIND       PRES   REMARKS
FLAG ISLAND    FAIR      28  21  74 S3        30.25F
WARROAD        FAIR      32  27  80 S3        30.27F
ROSEAU         FAIR      34  27  75 S9        30.26F
HALLOCK        FAIR      30  25  80 S7        30.26F WCI  23
THF RVR FALLS  FAIR      33  26  75 S7        30.29F
BAUDETTE       FAIR      30  21  69 S5        30.26F
WASKISH        FAIR      23  21  93 CALM      30.29F
CROOKSTON      FAIR      30  27  86 S5        30.30F
STEPHEN NDAWN    N/A     37  28  70 S7          N/A
GREENBUSH NDAW   N/A     34  28  80 S5          N/A
$$
  *****  WEATHER ACROSS CENTRAL AND WEST MINNESOTA  *****

CITY           SKY/WX    TMP DP  RH WIND       PRES   REMARKS
FOSSTON        FAIR      27  16  63 CALM      30.30F
BEMIDJI        FAIR      25  19  78 CALM      30.30F
PARK RAPIDS    FAIR      28  22  78 W3        30.29F
ELBOW LAKE     FAIR      33  27  77 E5        30.31S
WADENA         FAIR      32  25  74 N6        30.30R
DETROIT LAKES  FAIR      32  28  86 CALM      30.31F
MOORHEAD       FAIR      32  27  80 CALM      30.32F
FERGUS FALLS   FAIR      36  27  69 NE3       30.30F
MORRIS MN      FAIR      34  28  80 N6        30.30S
STAPLES        FAIR      30  23  74 N3        30.30R
$$
  *****  WEATHER ELSEWHERE ACROSS MINNESOTA  *****

CITY           SKY/WX    TMP DP  RH WIND       PRES   REMARKS
DULUTH         FAIR      32  21  64 N5        30.27S
INTRNTL FALLS  FAIR      22  20  92 CALM      30.28F
ELY            FAIR      25  19  80 CALM      30.27F
CLOQUET        FAIR      30  19  64 NW6       30.27S WCI  24
WHEATON        FAIR      34  28  80 CALM      30.34S
BRAINERD       FAIR      30  22  72 CALM      30.30R
HIBBING        FAIR      23  19  85 CALM      30.28S
ALEXANDRIA     FAIR      37  24  59 NE8       30.30S
SAINT CLOUD    FAIR      34  27  75 N7        30.28R
MINNEAPOLIS    FAIR      43  28  55 N10       30.25R
$$

  *****  WEATHER ACROSS SOUTH DAKOTA  *****

CITY           SKY/WX    TMP DP  RH WIND       PRES   REMARKS
SIOUX FALLS    FAIR      37  30  75 N12       30.29S
BROOKINGS      FAIR      34  29  82 N7        30.31S
WATERTOWN      FAIR      28  26  92 N3        30.31F
HURON          FAIR      31  29  92 NW3       30.33F
SISSETON         N/A     34  28  79 W7        30.31S
ABERDEEN       FAIR      28  26  92 CALM      30.34F
MITCHELL       FAIR      35  32  88 W6        30.35R
PIERRE         FAIR      34  29  82 W7        30.35F
MOBRIDGE       FAIR      35  29  78 SE3       30.32F
RAPID CITY     FAIR      30  22  72 W5        30.38F
$$

  *****  SOME WEATHER IN NEARBY STATES *****

CITY           SKY/WX    TMP DP  RH WIND       PRES   REMARKS
GLASGOW MT     FAIR      43  32  65 SE12      30.16F
GREAT FALLS MT FAIR      45  23  42 S16       30.15F
CHEYENNE WY    FAIR      28  25  88 NW6       30.40F WCI  22
SCOTTSBLUFF NE FAIR      30  28  92 N5        30.42F
OMAHA NE       CLOUDY    48  45  89 N15       30.23R
DES MOINES IA  CLOUDY    53  42  66 N13       30.18R
DAVENPORT IA   FAIR      56  37  49 N17       30.04S
CHICAGO IL     CLOUDY    48  32  53 N22       30.04S
EAU CLAIRE WI  FAIR      37  34  89 N8        30.21R
LA CROSSE WI   FAIR      41  33  73 N8        30.17F
$$

  *****  SOME NATIONAL WEATHER *****

CITY           SKY/WX    TMP DP  RH WIND       PRES   REMARKS
LA GUARDIA NY  LGT RAIN  50  47  89 NE10      30.05F
RALEIGH NC     MOCLDY    60  60 100 SE5       29.74F
ATLANTA GA     FAIR      56  55  97 W8        29.89F
NEW ORLEANS LA FAIR      65  60  84 CALM      30.03F
OKLAHOMA CITY  CLOUDY    54  47  77 N22G28    30.16R
ALBUQUERQUE NM FAIR      50  36  58 E31G39    30.17R
SALT LAKE CITY FAIR      54  31  41 SE3       30.26R
LOS ANGELES CA MOCLDY    56  52  86 W7        30.05R
BOISE ID       FAIR      55  31  39 SE12      30.19F
SEATTLE WA     FAIR      60  36  40 N16       30.07S
$$

*** WEATHER ACROSS MANITOBA...SASKATCHEWAN AND ONTARIO ***
                ***ONTARIO***

CITY           SKY/WX    TMP DP  RH WIND       PRES   REMARKS
GERALDTON      CLEAR     25  21  86 NW2       30.21F
THUNDER BAY    PTCLDY    27  21  80 NW5       30.26F WCI  21
SIOUX LOOKOUT  CLEAR     23  21  93 S3        30.23F
TORONTO        LGT RAIN  50  48  93 E8        29.96F
BIG TROUT LK   CLEAR     28  21  74 S7        30.08F WCI  21
PICKLE LAKE    NOT AVBL
DRYDEN         CLEAR     28  21  74 SW7       30.23F WCI  21
KENORA         CLEAR     32  21  64 S8        30.23F WCI  25
$$
                *** MANITOBA***

CITY           SKY/WX    TMP DP  RH WIND       PRES   REMARKS
BRANDON        CLEAR     43  28  56 SW14      30.14F
DAUPHIN        CLEAR     52  28  40 SW18G25   30.01F
ISLAND LAKE    CLOUDY    39  23  52 S16G24    29.95F
PILOT MOUND      N/A     37  27  65 S14         N/A
THE PAS        CLOUDY    50  32  50 SW10      29.78F
THOMPSON       MOCLDY    39  28  65 SW6       29.72F
WINNIPEG       CLEAR     39  21  48 S15       30.19F
LYNN LAKE      CLEAR     45  28  53 W7        29.69F
CHURCHILL      LGT RAIN  34  32  93 S15       29.57F WCI  24
GILLAM         CLOUDY    41  27  56 SW15      29.71F
$$
                ***SASKATCHEWAN***

CITY           SKY/WX    TMP DP  RH WIND       PRES   REMARKS
ESTEVAN        MOCLDY    41  28  60 SW12      30.15F
KINDERSLEY     PTCLDY    43  28  56 S6        29.91F
LLOYDMINSTER   MOCLDY    48  30  49 N8        29.92R
PRINCE ALBERT  MOCLDY    43  32  65 VRB2      29.88F
REGINA         MOCLDY    41  28  60 S12       30.05F
YORKTON        CLEAR     45  28  53 SW15G21   30.01F
N. BATTLEFORD  CLEAR     43  28  56 W3        29.91S
LA RONGE       MOCLDY    50  25  37 SW3       29.81S
SASKATOON      CLEAR     46  28  49 S9        29.89F
SWIFT CURRENT  CLEAR     48  28  46 SW23      29.99F
$$
NOTE: THESE ARE AUTOMATED STATIONS WITH LIMITED QUALITY CONTROL
      "FAIR" INDICATES FEW OR NO CLOUDS BELOW 12,000 FEET WITH NO
      SIGNIFICANT WEATHER AND/OR OBSTRUCTIONS TO VISIBILITY.
      SKY/WX - SKY CONDITION AND SIGNIFICANT WEATHER.
      TMP - AIR TEMPERATURE.    DP   - DEWPOINT TEMPERATURE.
      RH  - RELATIVE HUMIDITY.  PRES - PRESSURE.
      HX  - HEAT INDEX.         WCI  - WIND CHILL INDEX.
$



USA.gov is the U.S. government's official web portal to all federal, state and local government web resources and services.